PLF105 EPKT-LEIB

Flight info

Callsign PLF105
Flight time 2h 44m
Altitude 34000
Route TUSIN M984 MIKOV DCT DETSA M984 LUSIL Y740 SRN M858 ITCAP M859 LAGEN Q712 ENOBA Z185 BORDI N736 PIGOS N86 MAMES M984 BISBA N975 BGR N855 POS
Aircraft B738/M-SDE2E3FGHIRWXY/LB1

Departure

Time 2026-04-30 12:12
Airport Katowice Wojciech Korfanty International Airport (EPKT)

Arrival

Time 2026-04-30 14:56
Airport Ibiza Airport (LEIB)
Time Latitude Longitude Altitude Speed Heading
2026-04-30 11:43 50.47184 19.07213 979 ft 0 kts 179°
2026-04-30 12:02 50.47190 19.07213 986 ft 4 kts 179°
2026-04-30 12:03 50.47213 19.07212 979 ft 4 kts 169°
2026-04-30 12:03 50.47235 19.07161 979 ft 1 kts 90°
2026-04-30 12:03 50.47235 19.07155 979 ft 0 kts 90°
2026-04-30 12:07 50.47235 19.07171 979 ft 4 kts 90°
2026-04-30 12:07 50.47235 19.07258 985 ft 12 kts 90°
2026-04-30 12:07 50.47235 19.07425 979 ft 19 kts 90°
2026-04-30 12:08 50.47235 19.07664 985 ft 25 kts 90°
2026-04-30 12:08 50.47235 19.07946 981 ft 25 kts 90°
2026-04-30 12:08 50.47236 19.08233 985 ft 27 kts 90°
2026-04-30 12:08 50.47236 19.08528 983 ft 27 kts 90°
2026-04-30 12:09 50.47237 19.08827 979 ft 28 kts 90°
2026-04-30 12:09 50.47233 19.09122 986 ft 26 kts 90°
2026-04-30 12:09 50.47231 19.09398 986 ft 24 kts 90°
2026-04-30 12:09 50.47229 19.09652 983 ft 23 kts 90°
2026-04-30 12:10 50.47232 19.09898 983 ft 22 kts 89°
2026-04-30 12:10 50.47286 19.10114 980 ft 22 kts 51°
2026-04-30 12:10 50.47378 19.10298 979 ft 21 kts 52°
2026-04-30 12:10 50.47408 19.10359 979 ft 0 kts 52°
2026-04-30 12:11 50.47409 19.10360 979 ft 1 kts 52°
2026-04-30 12:11 50.47423 19.10389 979 ft 8 kts 52°
2026-04-30 12:11 50.47492 19.10445 986 ft 15 kts
2026-04-30 12:11 50.47594 19.10360 984 ft 19 kts 275°
2026-04-30 12:12 50.47594 19.10305 981 ft 21 kts 270°
2026-04-30 12:12 50.47595 19.09650 986 ft 98 kts 270°
2026-04-30 12:12 50.47602 19.08236 1008 ft 157 kts 272°
2026-04-30 12:12 50.47618 19.06499 1777 ft 152 kts 271°
2026-04-30 12:13 50.47612 19.05404 2361 ft 155 kts 271°
2026-04-30 12:13 50.47614 19.03645 3022 ft 174 kts 272°
2026-04-30 12:13 50.47617 19.00783 3421 ft 220 kts 272°
2026-04-30 12:13 50.47617 18.98260 3890 ft 238 kts 271°
2026-04-30 12:14 50.47617 18.95529 4341 ft 259 kts 272°
2026-04-30 12:14 50.47622 18.92670 5152 ft 264 kts 271°
2026-04-30 12:14 50.47603 18.90724 5766 ft 265 kts 271°
2026-04-30 12:14 50.47564 18.87850 6631 ft 268 kts 271°
2026-04-30 12:15 50.47522 18.84899 7445 ft 272 kts 271°
2026-04-30 12:15 50.47479 18.81896 8224 ft 277 kts 271°
2026-04-30 12:15 50.47436 18.78844 9014 ft 281 kts 271°
2026-04-30 12:15 50.47393 18.75750 9785 ft 286 kts 271°
2026-04-30 12:16 50.47350 18.72631 10523 ft 291 kts 272°
2026-04-30 12:16 50.47307 18.69366 10902 ft 311 kts 272°
2026-04-30 12:16 50.47260 18.65821 11096 ft 336 kts 272°
2026-04-30 12:16 50.47179 18.62063 11525 ft 352 kts 266°
2026-04-30 12:17 50.44771 18.55273 12874 ft 374 kts 218°
2026-04-30 12:17 50.42495 18.53248 13601 ft 379 kts 205°
2026-04-30 12:17 50.40082 18.51519 14288 ft 385 kts 203°
2026-04-30 12:18 50.37617 18.49782 14967 ft 391 kts 204°
2026-04-30 12:18 50.35125 18.47978 15655 ft 397 kts 204°
2026-04-30 12:18 50.32642 18.46142 16358 ft 401 kts 204°
2026-04-30 12:18 50.30051 18.44473 16943 ft 404 kts 192°
2026-04-30 12:19 50.27266 18.44073 17478 ft 402 kts 171°
2026-04-30 12:19 50.24515 18.44815 18095 ft 401 kts 163°
2026-04-30 12:19 50.21777 18.45746 18652 ft 405 kts 163°
2026-04-30 12:19 50.19006 18.46687 19187 ft 410 kts 163°
2026-04-30 12:20 50.16198 18.47592 19749 ft 413 kts 163°
2026-04-30 12:20 50.13358 18.48478 20300 ft 417 kts 164°
2026-04-30 12:20 50.10537 18.49347 20813 ft 421 kts 164°
2026-04-30 12:20 50.07649 18.50238 21329 ft 424 kts 163°
2026-04-30 12:21 50.04742 18.51135 21828 ft 427 kts 163°
2026-04-30 12:21 50.01818 18.52037 22324 ft 430 kts 163°
2026-04-30 12:21 49.98867 18.52947 22802 ft 433 kts 163°
2026-04-30 12:21 49.95904 18.53860 23293 ft 435 kts 163°
2026-04-30 12:22 49.92932 18.54774 23774 ft 437 kts 163°
2026-04-30 12:22 49.89937 18.55649 24193 ft 442 kts 168°
2026-04-30 12:22 49.86852 18.55496 24495 ft 458 kts 189°
2026-04-30 12:22 49.83854 18.53753 24896 ft 465 kts 209°
2026-04-30 12:23 49.81294 18.50682 25286 ft 467 kts 229°
2026-04-30 12:23 49.79258 18.46764 25651 ft 469 kts 234°
2026-04-30 12:23 49.77296 18.42703 25935 ft 474 kts 236°
2026-04-30 12:23 49.75330 18.38576 26212 ft 479 kts 236°
2026-04-30 12:24 49.73339 18.34424 26538 ft 482 kts 235°
2026-04-30 12:24 49.71313 18.30253 26872 ft 485 kts 235°
2026-04-30 12:24 49.69268 18.26094 27215 ft 487 kts 234°
2026-04-30 12:24 49.67223 18.21972 27530 ft 490 kts 234°
2026-04-30 12:25 49.65140 18.17795 27814 ft 493 kts 234°
2026-04-30 12:25 49.63037 18.13590 28078 ft 497 kts 234°
2026-04-30 12:25 49.60910 18.09346 28349 ft 500 kts 234°
2026-04-30 12:25 49.58777 18.05093 28651 ft 502 kts 234°
2026-04-30 12:26 49.56628 18.00813 28966 ft 504 kts 234°
2026-04-30 12:26 49.54475 17.96531 29205 ft 507 kts 234°
2026-04-30 12:26 49.52304 17.92218 29395 ft 512 kts 234°
2026-04-30 12:26 49.50112 17.87870 29666 ft 513 kts 234°
2026-04-30 12:27 49.47914 17.83518 29959 ft 515 kts 234°
2026-04-30 12:27 49.45742 17.79226 30244 ft 516 kts 234°
2026-04-30 12:27 49.43538 17.74876 30591 ft 515 kts 234°
2026-04-30 12:27 49.41342 17.70550 31062 ft 511 kts 234°
2026-04-30 12:28 49.39160 17.66259 31527 ft 507 kts 234°
2026-04-30 12:28 49.36995 17.62006 31988 ft 503 kts 234°
2026-04-30 12:28 49.34848 17.57791 32380 ft 501 kts 234°
2026-04-30 12:28 49.32698 17.53582 32699 ft 500 kts 233°
2026-04-30 12:29 49.30481 17.49465 33026 ft 500 kts 231°
2026-04-30 12:29 49.28185 17.45480 33382 ft 498 kts 229°
2026-04-30 12:29 49.25859 17.41566 33782 ft 495 kts 229°
2026-04-30 12:29 49.23568 17.37743 34177 ft 492 kts 229°
2026-04-30 12:30 49.21258 17.33881 34445 ft 492 kts 229°
2026-04-30 12:30 49.18938 17.29980 34426 ft 496 kts 229°
2026-04-30 12:30 49.14318 17.22161 34426 ft 492 kts 229°
2026-04-30 12:31 49.09759 17.14436 34432 ft 489 kts 229°
2026-04-30 12:31 49.05231 17.06784 34432 ft 489 kts 229°
2026-04-30 12:32 49.00654 16.99079 34431 ft 490 kts 229°
2026-04-30 12:32 48.96059 16.91367 34452 ft 494 kts 229°
2026-04-30 12:33 48.91389 16.83552 34636 ft 502 kts 229°
2026-04-30 12:33 48.89035 16.79621 34827 ft 503 kts 229°
2026-04-30 12:33 48.86681 16.75698 35111 ft 502 kts 229°
2026-04-30 12:34 48.84334 16.71791 35445 ft 499 kts 229°
2026-04-30 12:34 48.81995 16.67901 35782 ft 497 kts 229°
2026-04-30 12:34 48.79698 16.64087 36069 ft 495 kts 230°
2026-04-30 12:34 48.77523 16.60057 36276 ft 493 kts 238°
2026-04-30 12:35 48.75632 16.55699 36495 ft 492 kts 240°
2026-04-30 12:35 48.73807 16.51329 36733 ft 491 kts 240°
2026-04-30 12:35 48.72000 16.46956 37103 ft 487 kts 240°
2026-04-30 12:35 48.70211 16.42642 37527 ft 481 kts 240°
2026-04-30 12:36 48.68430 16.38379 37932 ft 476 kts 240°
2026-04-30 12:36 48.66656 16.34165 38148 ft 475 kts 240°
2026-04-30 12:36 48.64865 16.29937 38256 ft 478 kts 240°
2026-04-30 12:36 48.63066 16.25710 38411 ft 478 kts 240°
2026-04-30 12:37 48.61283 16.21536 38626 ft 477 kts 240°
2026-04-30 12:37 48.59484 16.17336 38860 ft 475 kts 240°
2026-04-30 12:37 48.57686 16.13145 39012 ft 475 kts 240°
2026-04-30 12:37 48.55878 16.08936 39202 ft 475 kts 240°
2026-04-30 12:38 48.54083 16.04761 39398 ft 474 kts 240°
2026-04-30 12:38 48.52290 16.00598 39541 ft 474 kts 240°
2026-04-30 12:38 48.48682 15.92237 39732 ft 476 kts 239°
2026-04-30 12:39 48.46873 15.88054 39888 ft 475 kts 239°
2026-04-30 12:39 48.45066 15.83883 40046 ft 475 kts 239°
2026-04-30 12:39 48.43279 15.79766 40162 ft 475 kts 239°
2026-04-30 12:39 48.41471 15.75604 40285 ft 475 kts 239°
2026-04-30 12:40 48.39663 15.71452 40396 ft 475 kts 239°
2026-04-30 12:40 48.37850 15.67292 40418 ft 476 kts 239°
2026-04-30 12:40 48.34205 15.58949 40424 ft 476 kts 239°
2026-04-30 12:41 48.30567 15.50650 40419 ft 475 kts 239°
2026-04-30 12:41 48.26928 15.42372 40419 ft 474 kts 239°
2026-04-30 12:42 48.23294 15.34131 40439 ft 473 kts 239°
2026-04-30 12:42 48.19656 15.25905 40414 ft 473 kts 239°
2026-04-30 12:43 48.16034 15.17739 40397 ft 473 kts 239°
2026-04-30 12:43 48.12381 15.09529 40391 ft 473 kts 239°
2026-04-30 12:44 48.08718 15.01322 40398 ft 473 kts 239°
2026-04-30 12:44 48.05053 14.93135 40396 ft 474 kts 239°
2026-04-30 12:45 48.01400 14.85000 40399 ft 475 kts 239°
2026-04-30 12:45 47.97703 14.76790 40398 ft 475 kts 239°
2026-04-30 12:46 47.94004 14.68602 40388 ft 475 kts 239°
2026-04-30 12:46 47.90326 14.60484 40401 ft 475 kts 239°
2026-04-30 12:47 47.86615 14.52318 40383 ft 474 kts 239°
2026-04-30 12:47 47.82912 14.44194 40393 ft 474 kts 239°
2026-04-30 12:48 47.79204 14.36082 40395 ft 473 kts 238°
2026-04-30 12:48 47.75493 14.27989 40393 ft 473 kts 238°
2026-04-30 12:49 47.71788 14.19931 40388 ft 472 kts 238°
2026-04-30 12:49 47.68098 14.11931 40381 ft 472 kts 238°
2026-04-30 12:50 47.64380 14.03892 40375 ft 472 kts 238°
2026-04-30 12:50 47.60652 13.95855 40364 ft 472 kts 238°
2026-04-30 12:51 47.56946 13.87891 40363 ft 472 kts 238°
2026-04-30 12:51 47.53216 13.79897 40363 ft 472 kts 238°
2026-04-30 12:52 47.49481 13.71916 40360 ft 472 kts 238°
2026-04-30 12:52 47.45734 13.63932 40367 ft 472 kts 238°
2026-04-30 12:53 47.41986 13.55970 40354 ft 472 kts 238°
2026-04-30 12:53 47.38238 13.48030 40350 ft 471 kts 238°
2026-04-30 12:54 47.34511 13.40157 40352 ft 471 kts 238°
2026-04-30 12:54 47.30754 13.32245 40353 ft 470 kts 238°
2026-04-30 12:55 47.26995 13.24351 40345 ft 470 kts 238°
2026-04-30 12:55 47.23236 13.16479 40331 ft 469 kts 238°
2026-04-30 12:56 47.19489 13.08655 40331 ft 467 kts 238°
2026-04-30 12:56 47.15768 13.00905 40330 ft 465 kts 238°
2026-04-30 12:57 47.12033 12.93149 40301 ft 464 kts 238°
2026-04-30 12:57 47.08302 12.85422 40306 ft 463 kts 238°
2026-04-30 12:58 47.04572 12.77721 40294 ft 462 kts 238°
2026-04-30 12:58 47.00850 12.70054 40282 ft 462 kts 238°
2026-04-30 12:59 46.97116 12.62385 40349 ft 464 kts 238°
2026-04-30 12:59 46.95235 12.58528 40476 ft 464 kts 237°
2026-04-30 12:59 46.93381 12.54736 40656 ft 462 kts 237°
2026-04-30 13:00 46.91510 12.50913 40828 ft 461 kts 237°
2026-04-30 13:00 46.89644 12.47102 40959 ft 461 kts 237°
2026-04-30 13:00 46.85894 12.39462 41158 ft 461 kts 237°
2026-04-30 13:01 46.82144 12.31841 41252 ft 463 kts 237°
2026-04-30 13:01 46.79227 12.25335 41265 ft 458 kts 246°
2026-04-30 13:02 46.75902 12.15701 41272 ft 457 kts 247°
2026-04-30 13:02 46.73059 12.07408 41265 ft 457 kts 246°
2026-04-30 13:03 46.70669 12.00558 41273 ft 456 kts 246°
2026-04-30 13:03 46.67772 11.92330 41264 ft 456 kts 246°
2026-04-30 13:04 46.64876 11.84131 41266 ft 454 kts 246°
2026-04-30 13:04 46.61986 11.75964 41278 ft 453 kts 246°
2026-04-30 13:05 46.59092 11.67807 41251 ft 453 kts 246°
2026-04-30 13:06 46.54780 11.55663 41238 ft 453 kts 246°
2026-04-30 13:06 46.51886 11.47537 41220 ft 453 kts 246°
2026-04-30 13:07 46.48989 11.39426 41210 ft 452 kts 246°
2026-04-30 13:07 46.46081 11.31307 41191 ft 453 kts 246°
2026-04-30 13:08 46.43260 11.23143 41185 ft 453 kts 247°
2026-04-30 13:08 46.40476 11.14977 41194 ft 452 kts 247°
2026-04-30 13:09 46.37670 11.06807 41216 ft 452 kts 247°
2026-04-30 13:09 46.34874 10.98720 41230 ft 452 kts 247°
2026-04-30 13:10 46.32054 10.90585 41253 ft 452 kts 247°
2026-04-30 13:10 46.29218 10.82433 41267 ft 453 kts 247°
2026-04-30 13:11 46.26377 10.74284 41270 ft 455 kts 247°
2026-04-30 13:11 46.23519 10.66108 41263 ft 455 kts 247°
2026-04-30 13:12 46.20678 10.58000 41258 ft 455 kts 246°
2026-04-30 13:12 46.17811 10.49842 41260 ft 455 kts 246°
2026-04-30 13:13 46.13504 10.37639 41257 ft 454 kts 246°
2026-04-30 13:14 46.09203 10.25492 41261 ft 453 kts 246°
2026-04-30 13:14 46.04905 10.13400 41258 ft 451 kts 246°
2026-04-30 13:15 46.00638 10.01434 41273 ft 449 kts 246°
2026-04-30 13:16 45.97786 9.93448 41283 ft 447 kts 246°
2026-04-30 13:16 45.94882 9.85523 41255 ft 450 kts 239°
2026-04-30 13:17 45.90223 9.79452 41276 ft 462 kts 211°
2026-04-30 13:17 45.87269 9.77606 41292 ft 466 kts 202°
2026-04-30 13:18 45.77985 9.73194 41292 ft 469 kts 201°
2026-04-30 13:18 45.68708 9.68750 41292 ft 472 kts 201°
2026-04-30 13:19 45.62493 9.65710 41294 ft 473 kts 202°
2026-04-30 13:19 45.56258 9.62656 41300 ft 474 kts 202°
2026-04-30 13:20 45.50015 9.59607 41296 ft 474 kts 201°
2026-04-30 13:20 45.43767 9.56565 41285 ft 474 kts 201°
2026-04-30 13:21 45.37572 9.53558 41284 ft 472 kts 202°
2026-04-30 13:22 45.28250 9.49046 41282 ft 469 kts 202°
2026-04-30 13:22 45.18995 9.44581 41273 ft 466 kts 202°
2026-04-30 13:23 45.09836 9.40177 41263 ft 463 kts 202°
2026-04-30 13:24 44.97646 9.34339 41253 ft 460 kts 202°
2026-04-30 13:25 44.85528 9.28555 41246 ft 458 kts 204°
2026-04-30 13:26 44.78098 9.20890 41216 ft 440 kts 237°
2026-04-30 13:26 44.74497 9.13935 41218 ft 440 kts 238°
2026-04-30 13:28 44.65408 8.96603 41215 ft 442 kts 237°
2026-04-30 13:28 44.59881 8.86205 41200 ft 443 kts 237°
2026-04-30 13:29 44.52502 8.72377 41196 ft 444 kts 237°
2026-04-30 13:31 44.43240 8.55113 41188 ft 443 kts 237°
2026-04-30 13:32 44.33998 8.37983 41201 ft 439 kts 236°
2026-04-30 13:33 44.26783 8.24305 41202 ft 435 kts 239°
2026-04-30 13:34 44.21668 8.13865 41204 ft 433 kts 239°
2026-04-30 13:35 44.14824 8.00139 41190 ft 431 kts 238°
2026-04-30 13:36 44.07961 7.86455 41201 ft 430 kts 238°
2026-04-30 13:36 44.02685 7.76327 41187 ft 434 kts 231°
2026-04-30 13:37 43.95498 7.68572 41211 ft 442 kts 218°
2026-04-30 13:38 43.87818 7.61382 41191 ft 445 kts 218°
2026-04-30 13:39 43.77601 7.51668 41165 ft 447 kts 218°
2026-04-30 13:40 43.69902 7.44358 41158 ft 447 kts 218°
2026-04-30 13:40 43.64773 7.39523 41154 ft 445 kts 218°
2026-04-30 13:41 43.59464 7.35103 41161 ft 448 kts 210°
2026-04-30 13:41 43.53822 7.31476 41154 ft 447 kts 209°
2026-04-30 13:42 43.48198 7.27875 41156 ft 444 kts 209°
2026-04-30 13:42 43.39883 7.22428 41156 ft 441 kts 210°
2026-04-30 13:43 43.34349 7.18804 41158 ft 440 kts 210°
2026-04-30 13:43 43.28823 7.15213 41155 ft 439 kts 210°
2026-04-30 13:44 43.23302 7.11637 41158 ft 438 kts 210°
2026-04-30 13:44 43.17968 7.07693 41153 ft 430 kts 221°
2026-04-30 13:45 43.13761 7.02078 41147 ft 422 kts 237°
2026-04-30 13:45 43.12056 6.98820 41164 ft 421 kts 238°
2026-04-30 13:46 43.08687 6.92255 41160 ft 422 kts 238°
2026-04-30 13:46 43.05283 6.85691 41157 ft 423 kts 238°
2026-04-30 13:47 43.01848 6.79142 41159 ft 424 kts 237°
2026-04-30 13:47 42.98395 6.72589 41158 ft 425 kts 237°
2026-04-30 13:48 42.94954 6.66069 41158 ft 426 kts 237°
2026-04-30 13:48 42.91480 6.59500 41158 ft 427 kts 237°
2026-04-30 13:49 42.88899 6.53800 41159 ft 422 kts 248°
2026-04-30 13:49 42.87147 6.46241 41167 ft 417 kts 260°
2026-04-30 13:50 42.85862 6.37216 41163 ft 417 kts 261°
2026-04-30 13:50 42.84374 6.26903 41158 ft 416 kts 260°
2026-04-30 13:51 42.83229 6.19166 41158 ft 415 kts 260°
2026-04-30 13:51 42.82079 6.11466 41154 ft 414 kts 260°
2026-04-30 13:52 42.80924 6.03784 41153 ft 414 kts 260°
2026-04-30 13:52 42.79766 5.96105 41159 ft 413 kts 259°
2026-04-30 13:53 42.78604 5.88445 41155 ft 412 kts 259°
2026-04-30 13:53 42.77449 5.80860 41157 ft 412 kts 259°
2026-04-30 13:54 42.76281 5.73231 41158 ft 412 kts 259°
2026-04-30 13:54 42.75109 5.65605 41157 ft 412 kts 259°
2026-04-30 13:55 42.73930 5.57971 41159 ft 412 kts 259°
2026-04-30 13:55 42.72745 5.50333 41155 ft 412 kts 259°
2026-04-30 13:56 42.71555 5.42691 41158 ft 413 kts 259°
2026-04-30 13:56 42.70364 5.35111 41150 ft 413 kts 258°
2026-04-30 13:57 42.68292 5.27798 41144 ft 418 kts 242°
2026-04-30 13:57 42.65310 5.21015 41146 ft 419 kts 242°
2026-04-30 13:58 42.60830 5.10806 41148 ft 419 kts 242°
2026-04-30 13:59 42.57882 5.04024 41148 ft 420 kts 242°
2026-04-30 13:59 42.55040 4.97109 41148 ft 418 kts 246°
2026-04-30 14:00 42.52579 4.89945 41145 ft 419 kts 247°
2026-04-30 14:00 42.48906 4.79203 41150 ft 419 kts 247°
2026-04-30 14:01 42.46429 4.72063 41145 ft 419 kts 247°
2026-04-30 14:01 42.43958 4.64970 41147 ft 418 kts 247°
2026-04-30 14:02 42.41472 4.57852 41149 ft 418 kts 247°
2026-04-30 14:02 42.38971 4.50755 41146 ft 417 kts 246°
2026-04-30 14:03 42.36469 4.43685 41150 ft 416 kts 246°
2026-04-30 14:03 42.33970 4.36631 41145 ft 416 kts 246°
2026-04-30 14:04 42.31489 4.29643 41147 ft 415 kts 246°
2026-04-30 14:04 42.28987 4.22615 41139 ft 414 kts 246°
2026-04-30 14:05 42.26489 4.15610 41139 ft 413 kts 246°
2026-04-30 14:05 42.23989 4.08618 41133 ft 413 kts 246°
2026-04-30 14:06 42.20254 3.98160 41130 ft 412 kts 248°
2026-04-30 14:07 42.16811 3.87602 41132 ft 411 kts 249°
2026-04-30 14:08 42.13358 3.77014 41116 ft 411 kts 248°
2026-04-30 14:08 42.09866 3.66429 41119 ft 412 kts 248°
2026-04-30 14:09 42.07532 3.59370 41125 ft 412 kts 248°
2026-04-30 14:10 42.04044 3.48778 41125 ft 413 kts 248°
2026-04-30 14:10 42.01724 3.41752 41123 ft 414 kts 248°
2026-04-30 14:11 41.99379 3.34670 41116 ft 415 kts 248°
2026-04-30 14:11 41.96971 3.27627 41103 ft 417 kts 240°
2026-04-30 14:11 41.95117 3.24608 41128 ft 422 kts 225°
2026-04-30 14:12 41.92689 3.22328 41111 ft 430 kts 212°
2026-04-30 14:12 41.89927 3.20837 41102 ft 439 kts 198°
2026-04-30 14:12 41.86873 3.20325 41138 ft 445 kts 188°
2026-04-30 14:13 41.80647 3.20118 41111 ft 448 kts 186°
2026-04-30 14:13 41.74415 3.19918 41097 ft 447 kts 187°
2026-04-30 14:14 41.68188 3.19615 41097 ft 447 kts 187°
2026-04-30 14:14 41.61983 3.19307 41101 ft 446 kts 187°
2026-04-30 14:15 41.55772 3.19005 41102 ft 446 kts 187°
2026-04-30 14:15 41.49609 3.18706 41098 ft 445 kts 187°
2026-04-30 14:16 41.43416 3.18418 41104 ft 445 kts 187°
2026-04-30 14:16 41.37226 3.18139 41102 ft 445 kts 187°
2026-04-30 14:17 41.31035 3.17857 41100 ft 444 kts 187°
2026-04-30 14:17 41.24850 3.17575 41104 ft 444 kts 187°
2026-04-30 14:18 41.18668 3.17293 41100 ft 444 kts 187°
2026-04-30 14:18 41.09447 3.16865 41093 ft 444 kts 187°
2026-04-30 14:19 41.00187 3.16436 41093 ft 443 kts 187°
2026-04-30 14:20 40.94008 3.16151 41094 ft 443 kts 187°
2026-04-30 14:20 40.84790 3.15725 41086 ft 443 kts 187°
2026-04-30 14:21 40.78619 3.15435 41083 ft 444 kts 187°
2026-04-30 14:22 40.69365 3.14998 41084 ft 443 kts 187°
2026-04-30 14:22 40.60105 3.14563 41084 ft 443 kts 187°
2026-04-30 14:23 40.47796 3.14000 41077 ft 443 kts 187°
2026-04-30 14:24 40.38536 3.13577 41074 ft 443 kts 187°
2026-04-30 14:25 40.26213 3.13016 41072 ft 443 kts 187°
2026-04-30 14:26 40.17015 3.12599 41064 ft 442 kts 187°
2026-04-30 14:27 40.07786 3.12181 41065 ft 442 kts 187°
2026-04-30 14:27 40.01635 3.11903 41065 ft 442 kts 187°
2026-04-30 14:28 39.92487 3.11098 41041 ft 431 kts 202°
2026-04-30 14:28 39.89780 3.09573 41072 ft 421 kts 213°
2026-04-30 14:28 39.87217 3.07706 41057 ft 421 kts 214°
2026-04-30 14:29 39.77914 3.00741 41058 ft 421 kts 214°
2026-04-30 14:31 39.64182 2.90747 39861 ft 428 kts 213°
2026-04-30 14:31 39.59018 2.87015 38691 ft 423 kts 214°
2026-04-30 14:31 39.56452 2.85161 38079 ft 421 kts 214°
2026-04-30 14:32 39.51389 2.81503 36848 ft 418 kts 214°
2026-04-30 14:32 39.48852 2.79673 36218 ft 417 kts 214°
2026-04-30 14:32 39.46320 2.77849 35561 ft 416 kts 213°
2026-04-30 14:33 39.43840 2.75918 34828 ft 413 kts 221°
2026-04-30 14:33 39.40054 2.70548 33801 ft 400 kts 234°
2026-04-30 14:33 39.38323 2.67749 33310 ft 396 kts 234°
2026-04-30 14:34 39.36633 2.65008 32825 ft 393 kts 234°
2026-04-30 14:34 39.34911 2.62230 32325 ft 390 kts 234°
2026-04-30 14:34 39.33215 2.59512 31843 ft 387 kts 234°
2026-04-30 14:34 39.32095 2.57725 31525 ft 385 kts 234°
2026-04-30 14:35 39.28732 2.52389 30570 ft 380 kts 233°
2026-04-30 14:35 39.26527 2.48903 29954 ft 377 kts 233°
2026-04-30 14:35 39.24869 2.46287 29468 ft 374 kts 233°
2026-04-30 14:36 39.23761 2.44538 29141 ft 372 kts 233°
2026-04-30 14:36 39.22147 2.41995 28661 ft 370 kts 233°
2026-04-30 14:36 39.20521 2.39434 28181 ft 367 kts 233°
2026-04-30 14:36 39.18907 2.36893 27700 ft 365 kts 233°
2026-04-30 14:37 39.17295 2.34360 27230 ft 363 kts 233°
2026-04-30 14:37 39.15701 2.31854 26749 ft 361 kts 233°
2026-04-30 14:37 39.14114 2.29362 26275 ft 359 kts 233°
2026-04-30 14:37 39.12533 2.26883 25810 ft 357 kts 233°
2026-04-30 14:38 39.10963 2.24420 25331 ft 355 kts 233°
2026-04-30 14:38 39.09397 2.21968 24865 ft 353 kts 233°
2026-04-30 14:38 39.07838 2.19528 24394 ft 351 kts 233°
2026-04-30 14:38 39.06291 2.17108 23929 ft 349 kts 233°
2026-04-30 14:39 39.04750 2.14700 23467 ft 348 kts 233°
2026-04-30 14:39 39.03215 2.12302 23005 ft 346 kts 232°
2026-04-30 14:39 39.01690 2.09921 22541 ft 344 kts 232°
2026-04-30 14:40 38.98676 2.05223 21641 ft 341 kts 232°
2026-04-30 14:40 38.97165 2.02869 21165 ft 340 kts 232°
2026-04-30 14:40 38.95665 2.00533 20723 ft 338 kts 232°
2026-04-30 14:40 38.94166 1.98201 20270 ft 337 kts 232°
2026-04-30 14:41 38.92674 1.95885 19821 ft 335 kts 232°
2026-04-30 14:41 38.91239 1.93586 19359 ft 324 kts 237°
2026-04-30 14:41 38.90290 1.91023 18933 ft 314 kts 252°
2026-04-30 14:41 38.89703 1.88355 18528 ft 308 kts 255°
2026-04-30 14:42 38.89190 1.85746 18123 ft 303 kts 256°
2026-04-30 14:42 38.88675 1.83099 17731 ft 311 kts 255°
2026-04-30 14:42 38.88127 1.80324 17317 ft 326 kts 255°
2026-04-30 14:42 38.87559 1.77494 16863 ft 325 kts 255°
2026-04-30 14:43 38.86997 1.74733 16418 ft 314 kts 255°
2026-04-30 14:43 38.86451 1.72065 15995 ft 304 kts 255°
2026-04-30 14:43 38.85916 1.69469 15593 ft 297 kts 255°
2026-04-30 14:43 38.85391 1.66924 15201 ft 293 kts 255°
2026-04-30 14:44 38.84867 1.64393 14819 ft 296 kts 254°
2026-04-30 14:44 38.84331 1.61810 14438 ft 311 kts 254°
2026-04-30 14:44 38.83770 1.59112 14021 ft 312 kts 254°
2026-04-30 14:44 38.83198 1.56488 13722 ft 298 kts 253°
2026-04-30 14:45 38.82638 1.53974 13346 ft 288 kts 253°
2026-04-30 14:45 38.82092 1.51521 12968 ft 284 kts 253°
2026-04-30 14:45 38.81552 1.49092 12589 ft 283 kts 253°
2026-04-30 14:45 38.81003 1.46626 12217 ft 295 kts 253°
2026-04-30 14:46 38.80429 1.44046 11811 ft 304 kts 253°
2026-04-30 14:46 38.79691 1.41547 11508 ft 292 kts 243°
2026-04-30 14:46 38.78772 1.39327 11357 ft 274 kts 241°
2026-04-30 14:46 38.77863 1.37247 11236 ft 260 kts 241°
2026-04-30 14:47 38.77011 1.35266 11136 ft 252 kts 241°
2026-04-30 14:47 38.76183 1.33302 11037 ft 252 kts 242°
2026-04-30 14:47 38.75344 1.31292 10877 ft 256 kts 242°
2026-04-30 14:47 38.74527 1.29325 10770 ft 242 kts 242°
2026-04-30 14:48 38.73756 1.27468 10582 ft 232 kts 242°
2026-04-30 14:48 38.73010 1.25678 10344 ft 224 kts 242°
2026-04-30 14:48 38.72278 1.23924 10107 ft 223 kts 242°
2026-04-30 14:48 38.71541 1.22156 9858 ft 228 kts 242°
2026-04-30 14:49 38.70772 1.20313 9574 ft 242 kts 242°
2026-04-30 14:49 38.69974 1.18401 9280 ft 242 kts 242°
2026-04-30 14:49 38.69191 1.16527 8993 ft 235 kts 242°
2026-04-30 14:49 38.68428 1.14704 8722 ft 229 kts 242°
2026-04-30 14:50 38.67008 1.11118 8113 ft 228 kts 256°
2026-04-30 14:50 38.67146 1.09087 7470 ft 240 kts 294°
2026-04-30 14:51 38.69766 1.06609 6540 ft 248 kts 351°
2026-04-30 14:51 38.71472 1.06866 6021 ft 253 kts 23°
2026-04-30 14:51 38.74166 1.09811 4915 ft 260 kts 47°
2026-04-30 14:52 38.75404 1.11526 4344 ft 263 kts 46°
2026-04-30 14:52 38.77849 1.14876 3262 ft 264 kts 51°
2026-04-30 14:52 38.78850 1.16780 3082 ft 250 kts 59°
2026-04-30 14:53 38.80386 1.20540 2638 ft 229 kts 62°
2026-04-30 14:53 38.81109 1.22311 2359 ft 218 kts 62°
2026-04-30 14:54 38.82448 1.25565 1802 ft 195 kts 63°
2026-04-30 14:54 38.83630 1.28442 1307 ft 173 kts 64°
2026-04-30 14:55 38.84657 1.30936 901 ft 144 kts 65°
2026-04-30 14:55 38.85117 1.32054 700 ft 140 kts 65°
2026-04-30 14:55 38.86034 1.34281 338 ft 142 kts 64°
2026-04-30 14:56 38.86937 1.36482 27 ft 128 kts 64°
2026-04-30 14:56 38.87465 1.37723 30 ft 25 kts 51°
2026-04-30 14:57 38.87581 1.37850 32 ft 12 kts 33°
2026-04-30 14:57 38.87610 1.37874 32 ft 2 kts 33°
2026-04-30 14:58 38.87686 1.37869 39 ft 9 kts 278°
2026-04-30 14:58 38.87657 1.37766 41 ft 16 kts 244°
2026-04-30 14:58 38.87648 1.37511 46 ft 15 kts 329°
2026-04-30 14:59 38.87625 1.37246 48 ft 23 kts 241°
2026-04-30 15:00 38.87419 1.36751 40 ft 18 kts 242°
2026-04-30 15:00 38.87450 1.36601 44 ft 0 kts